Year,Month,Day,Hour,Minute,Value (Times are PST for temperature in C)
2015,06,30,00,00,15.70
2015,06,30,00,01,15.60
2015,06,30,00,02,15.60
2015,06,30,00,03,15.60
2015,06,30,00,04,15.60
2015,06,30,00,05,15.60
2015,06,30,00,06,15.60
2015,06,30,00,07,15.60
2015,06,30,00,08,15.60
2015,06,30,00,09,15.60
2015,06,30,00,10,15.60
2015,06,30,00,11,15.60
2015,06,30,00,12,15.60
2015,06,30,00,13,15.50
2015,06,30,00,14,15.50
2015,06,30,00,15,15.50
2015,06,30,00,16,15.50
2015,06,30,00,17,15.40
2015,06,30,00,18,15.40
2015,06,30,00,19,15.40
2015,06,30,00,20,15.40
2015,06,30,00,21,15.40
2015,06,30,00,22,15.40
2015,06,30,00,23,15.40
2015,06,30,00,24,15.40
2015,06,30,00,25,15.40
2015,06,30,00,26,15.40
2015,06,30,00,27,15.40
2015,06,30,00,28,15.40
2015,06,30,00,29,15.40
2015,06,30,00,30,15.40
2015,06,30,00,31,15.40
2015,06,30,00,32,15.40
2015,06,30,00,33,15.40
2015,06,30,00,34,15.40
2015,06,30,00,35,15.40
2015,06,30,00,36,15.40
2015,06,30,00,37,15.40
2015,06,30,00,38,15.40
2015,06,30,00,39,15.40
2015,06,30,00,40,15.40
2015,06,30,00,41,15.40
2015,06,30,00,42,15.40
2015,06,30,00,43,15.40
2015,06,30,00,44,15.40
2015,06,30,00,45,15.40
2015,06,30,00,46,15.40
2015,06,30,00,47,15.40
2015,06,30,00,48,15.40
2015,06,30,00,49,15.40
2015,06,30,00,50,15.40
2015,06,30,00,51,15.40
2015,06,30,00,52,15.40
2015,06,30,00,53,15.40
2015,06,30,00,54,15.40
2015,06,30,00,55,15.40
2015,06,30,00,56,15.30
2015,06,30,00,57,15.30
2015,06,30,00,58,15.30
2015,06,30,00,59,15.30
2015,06,30,01,00,15.30
2015,06,30,01,01,15.30
2015,06,30,01,02,15.30
2015,06,30,01,03,15.30
2015,06,30,01,04,15.40
2015,06,30,01,05,15.40
2015,06,30,01,06,15.40
2015,06,30,01,07,15.40
2015,06,30,01,08,15.40
2015,06,30,01,09,15.40
2015,06,30,01,10,15.40
2015,06,30,01,11,15.40
2015,06,30,01,12,15.40
2015,06,30,01,13,15.40
2015,06,30,01,14,15.40
2015,06,30,01,15,15.40
2015,06,30,01,16,15.40
2015,06,30,01,17,15.50
2015,06,30,01,18,15.50
2015,06,30,01,19,15.40
2015,06,30,01,20,15.50
2015,06,30,01,21,15.40
2015,06,30,01,22,15.40
2015,06,30,01,23,15.40
2015,06,30,01,24,15.40
2015,06,30,01,25,15.40
2015,06,30,01,26,15.40
2015,06,30,01,27,15.40
2015,06,30,01,28,15.40
2015,06,30,01,29,15.40
2015,06,30,01,30,15.40
2015,06,30,01,31,15.40
2015,06,30,01,32,15.40
2015,06,30,01,33,15.40
2015,06,30,01,34,15.40
2015,06,30,01,35,15.40
2015,06,30,01,36,15.40
2015,06,30,01,37,15.40
2015,06,30,01,38,15.40
2015,06,30,01,39,15.40
2015,06,30,01,40,15.40
2015,06,30,01,41,15.40
2015,06,30,01,42,15.40
2015,06,30,01,43,15.30
2015,06,30,01,44,15.30
2015,06,30,01,45,15.30
2015,06,30,01,46,15.30
2015,06,30,01,47,15.30
2015,06,30,01,48,15.30
2015,06,30,01,49,15.30
2015,06,30,01,50,15.30
2015,06,30,01,51,15.30
2015,06,30,01,52,15.30
2015,06,30,01,53,15.30
2015,06,30,01,54,15.30
2015,06,30,01,55,15.30
2015,06,30,01,56,15.30
2015,06,30,01,57,15.30
2015,06,30,01,58,15.30
2015,06,30,01,59,15.30
2015,06,30,02,00,15.30
2015,06,30,02,01,15.30
2015,06,30,02,02,15.30
2015,06,30,02,03,15.30
2015,06,30,02,04,15.30
2015,06,30,02,05,15.30
2015,06,30,02,06,15.30
2015,06,30,02,07,15.30
2015,06,30,02,08,15.30
2015,06,30,02,09,15.30
2015,06,30,02,10,15.30
2015,06,30,02,11,15.30
2015,06,30,02,12,15.40
2015,06,30,02,13,15.40
2015,06,30,02,14,15.40
2015,06,30,02,15,15.40
2015,06,30,02,16,15.40
2015,06,30,02,17,15.40
2015,06,30,02,18,15.40
2015,06,30,02,19,15.30
2015,06,30,02,20,15.30
2015,06,30,02,21,15.40
2015,06,30,02,22,15.40
2015,06,30,02,23,15.40
2015,06,30,02,24,15.40
2015,06,30,02,25,15.40
2015,06,30,02,26,15.40
2015,06,30,02,27,15.40
2015,06,30,02,28,15.40
2015,06,30,02,29,15.40
2015,06,30,02,30,15.40
2015,06,30,02,31,15.40
2015,06,30,02,32,15.40
2015,06,30,02,33,15.40
2015,06,30,02,34,15.40
2015,06,30,02,35,15.40
2015,06,30,02,36,15.40
2015,06,30,02,37,15.40
2015,06,30,02,38,15.40
2015,06,30,02,39,15.40
2015,06,30,02,40,15.40
2015,06,30,02,41,15.40
2015,06,30,02,42,15.40
2015,06,30,02,43,15.40
2015,06,30,02,44,15.40
2015,06,30,02,45,15.40
2015,06,30,02,46,15.40
2015,06,30,02,47,15.40
2015,06,30,02,48,15.40
2015,06,30,02,49,15.40
2015,06,30,02,50,15.40
2015,06,30,02,51,15.40
2015,06,30,02,52,15.40
2015,06,30,02,53,15.40
2015,06,30,02,54,15.40
2015,06,30,02,55,15.40
2015,06,30,02,56,15.40
2015,06,30,02,57,15.40
2015,06,30,02,58,15.40
2015,06,30,02,59,15.40
2015,06,30,03,00,15.40
2015,06,30,03,01,15.40
2015,06,30,03,02,15.40
2015,06,30,03,03,15.40
2015,06,30,03,04,15.30
2015,06,30,03,05,15.40
2015,06,30,03,06,15.30
2015,06,30,03,07,15.40
2015,06,30,03,08,15.40
2015,06,30,03,09,15.40
2015,06,30,03,10,15.40
2015,06,30,03,11,15.40
2015,06,30,03,12,15.40
2015,06,30,03,13,15.40
2015,06,30,03,14,15.40
2015,06,30,03,15,15.40
2015,06,30,03,16,15.40
2015,06,30,03,17,15.40
2015,06,30,03,18,15.40
2015,06,30,03,19,15.40
2015,06,30,03,20,15.40
2015,06,30,03,21,15.40
2015,06,30,03,22,15.40
2015,06,30,03,23,15.30
2015,06,30,03,24,15.40
2015,06,30,03,25,15.40
2015,06,30,03,26,15.40
2015,06,30,03,27,15.40
2015,06,30,03,28,15.40
2015,06,30,03,29,15.40
2015,06,30,03,30,15.40
2015,06,30,03,31,15.40
2015,06,30,03,32,15.40
2015,06,30,03,33,15.40
2015,06,30,03,34,15.40
2015,06,30,03,35,15.40
2015,06,30,03,36,15.40
2015,06,30,03,37,15.40
2015,06,30,03,38,15.40
2015,06,30,03,39,15.40
2015,06,30,03,40,15.40
2015,06,30,03,41,15.40
2015,06,30,03,42,15.30
2015,06,30,03,43,15.30
2015,06,30,03,44,15.30
2015,06,30,03,45,15.30
2015,06,30,03,46,15.30
2015,06,30,03,47,15.40
2015,06,30,03,48,15.40
2015,06,30,03,49,15.40
2015,06,30,03,50,15.40
2015,06,30,03,51,15.40
2015,06,30,03,52,15.40
2015,06,30,03,53,15.40
2015,06,30,03,54,15.40
2015,06,30,03,55,15.40
2015,06,30,03,56,15.40
2015,06,30,03,57,15.40
2015,06,30,03,58,15.50
2015,06,30,03,59,15.50
2015,06,30,04,00,15.50
2015,06,30,04,01,15.50
2015,06,30,04,02,15.60
2015,06,30,04,03,15.60
2015,06,30,04,04,15.60
2015,06,30,04,05,15.60
2015,06,30,04,06,15.60
2015,06,30,04,07,15.60
2015,06,30,04,08,15.60
2015,06,30,04,09,15.60
2015,06,30,04,10,15.60
2015,06,30,04,11,15.60
2015,06,30,04,12,15.60
2015,06,30,04,13,15.60
2015,06,30,04,14,15.70
2015,06,30,04,15,15.70
2015,06,30,04,16,15.70
2015,06,30,04,17,15.70
2015,06,30,04,18,15.70
2015,06,30,04,19,15.70
2015,06,30,04,20,15.70
2015,06,30,04,21,15.70
2015,06,30,04,22,15.70
2015,06,30,04,23,15.70
2015,06,30,04,24,15.70
2015,06,30,04,25,15.70
2015,06,30,04,26,15.70
2015,06,30,04,27,15.70
2015,06,30,04,28,15.70
2015,06,30,04,29,15.70
2015,06,30,04,30,15.70
2015,06,30,04,31,15.70
2015,06,30,04,32,15.70
2015,06,30,04,33,15.70
2015,06,30,04,34,15.70
2015,06,30,04,35,15.70
2015,06,30,04,36,15.70
2015,06,30,04,37,15.70
2015,06,30,04,38,15.70
2015,06,30,04,39,15.70
2015,06,30,04,40,15.70
2015,06,30,04,41,15.70
2015,06,30,04,42,15.70
2015,06,30,04,43,15.70
2015,06,30,04,44,15.70
2015,06,30,04,45,15.70
2015,06,30,04,46,15.70
2015,06,30,04,47,15.70
2015,06,30,04,48,15.70
2015,06,30,04,49,15.70
2015,06,30,04,50,15.70
2015,06,30,04,51,15.70
2015,06,30,04,52,15.70
2015,06,30,04,53,15.70
2015,06,30,04,54,15.70
2015,06,30,04,55,15.70
2015,06,30,04,56,15.70
2015,06,30,04,57,15.70
2015,06,30,04,58,15.70
2015,06,30,04,59,15.70
2015,06,30,05,00,15.70
2015,06,30,05,01,15.70
2015,06,30,05,02,15.70
2015,06,30,05,03,15.70
2015,06,30,05,04,15.70
2015,06,30,05,05,15.70
2015,06,30,05,06,15.70
2015,06,30,05,07,15.70
2015,06,30,05,08,15.70
2015,06,30,05,09,15.70
2015,06,30,05,10,15.70
2015,06,30,05,11,15.70
2015,06,30,05,12,15.60
2015,06,30,05,13,15.60
2015,06,30,05,14,15.60
2015,06,30,05,15,15.60
2015,06,30,05,16,15.60
2015,06,30,05,17,15.60
2015,06,30,05,18,15.60
2015,06,30,05,19,15.50
2015,06,30,05,20,15.50
2015,06,30,05,21,15.50
2015,06,30,05,22,15.50
2015,06,30,05,23,15.50
2015,06,30,05,24,15.40
2015,06,30,05,25,15.40
2015,06,30,05,26,15.40
2015,06,30,05,27,15.40
2015,06,30,05,28,15.40
2015,06,30,05,29,15.40
2015,06,30,05,30,15.40
2015,06,30,05,31,15.40
2015,06,30,05,32,15.40
2015,06,30,05,33,15.40
2015,06,30,05,34,15.40
2015,06,30,05,35,15.40
2015,06,30,05,36,15.40
2015,06,30,05,37,15.40
2015,06,30,05,38,15.40
2015,06,30,05,39,15.40
2015,06,30,05,40,15.30
2015,06,30,05,41,15.40
2015,06,30,05,42,15.30
2015,06,30,05,43,15.30
2015,06,30,05,44,15.30
2015,06,30,05,45,15.30
2015,06,30,05,46,15.30
2015,06,30,05,47,15.30
2015,06,30,05,48,15.30
2015,06,30,05,49,15.30
2015,06,30,05,50,15.30
2015,06,30,05,51,15.30
2015,06,30,05,52,15.30
2015,06,30,05,53,15.30
2015,06,30,05,54,15.20
2015,06,30,05,55,15.20
2015,06,30,05,56,15.20
2015,06,30,05,57,15.20
2015,06,30,05,58,15.20
2015,06,30,05,59,15.20
2015,06,30,06,00,15.30
2015,06,30,06,01,15.30
2015,06,30,06,02,15.30
2015,06,30,06,03,15.30
2015,06,30,06,04,15.30
2015,06,30,06,05,15.30
2015,06,30,06,06,15.30
2015,06,30,06,07,15.30
2015,06,30,06,08,15.30
2015,06,30,06,09,15.30
2015,06,30,06,10,15.30
2015,06,30,06,11,15.30
2015,06,30,06,12,15.30
2015,06,30,06,13,15.30
2015,06,30,06,14,15.30
2015,06,30,06,15,15.30
2015,06,30,06,16,15.30
2015,06,30,06,17,15.30
2015,06,30,06,18,15.40
2015,06,30,06,19,15.40
2015,06,30,06,20,15.40
2015,06,30,06,21,15.40
2015,06,30,06,22,15.50
2015,06,30,06,23,15.50
2015,06,30,06,24,15.50
2015,06,30,06,25,15.60
2015,06,30,06,26,15.60
2015,06,30,06,27,15.60
2015,06,30,06,28,15.60
2015,06,30,06,29,15.60
2015,06,30,06,30,15.70
2015,06,30,06,31,15.70
2015,06,30,06,32,15.70
2015,06,30,06,33,15.70
2015,06,30,06,34,15.70
2015,06,30,06,35,15.70
2015,06,30,06,36,15.70
2015,06,30,06,37,15.70
2015,06,30,06,38,15.70
2015,06,30,06,39,15.70
2015,06,30,06,40,15.70
2015,06,30,06,41,15.70
2015,06,30,06,42,15.80
2015,06,30,06,43,15.80
2015,06,30,06,44,15.80
2015,06,30,06,45,15.80
2015,06,30,06,46,15.80
2015,06,30,06,47,15.80
2015,06,30,06,48,15.80
2015,06,30,06,49,15.80
2015,06,30,06,50,15.80
2015,06,30,06,51,15.70
2015,06,30,06,52,15.80
2015,06,30,06,53,15.80
2015,06,30,06,54,15.80
2015,06,30,06,55,15.80
2015,06,30,06,56,15.80
2015,06,30,06,57,15.80
2015,06,30,06,58,15.80
2015,06,30,06,59,15.80
2015,06,30,07,00,15.80
2015,06,30,07,01,15.80
2015,06,30,07,02,15.80
2015,06,30,07,03,15.80
2015,06,30,07,04,15.80
2015,06,30,07,05,15.80
2015,06,30,07,06,15.80
2015,06,30,07,07,15.80
2015,06,30,07,08,15.80
2015,06,30,07,09,15.80
2015,06,30,07,10,15.80
2015,06,30,07,11,15.90
2015,06,30,07,12,15.90
2015,06,30,07,13,15.90
2015,06,30,07,14,15.90
2015,06,30,07,15,15.90
2015,06,30,07,16,15.90
2015,06,30,07,17,15.90
2015,06,30,07,18,15.90
2015,06,30,07,19,15.90
2015,06,30,07,20,16.00
2015,06,30,07,21,16.00
2015,06,30,07,22,16.00
2015,06,30,07,23,16.00
2015,06,30,07,24,16.00
2015,06,30,07,25,16.00
2015,06,30,07,26,16.00
2015,06,30,07,27,16.00
2015,06,30,07,28,16.00
2015,06,30,07,29,16.00
2015,06,30,07,30,16.00
2015,06,30,07,31,16.00
2015,06,30,07,32,16.10
2015,06,30,07,33,16.10
2015,06,30,07,34,16.10
2015,06,30,07,35,16.10
2015,06,30,07,36,16.10
2015,06,30,07,37,16.10
2015,06,30,07,38,16.10
2015,06,30,07,39,16.10
2015,06,30,07,40,16.20
2015,06,30,07,41,16.20
2015,06,30,07,42,16.20
2015,06,30,07,43,16.20
2015,06,30,07,44,16.20
2015,06,30,07,45,16.30
2015,06,30,07,46,16.30
2015,06,30,07,47,16.30
2015,06,30,07,48,16.30
2015,06,30,07,49,16.30
2015,06,30,07,50,16.30
2015,06,30,07,51,16.30
2015,06,30,07,52,16.30
2015,06,30,07,53,16.30
2015,06,30,07,54,16.40
2015,06,30,07,55,16.40
2015,06,30,07,56,16.40
2015,06,30,07,57,16.40
2015,06,30,07,58,16.40
2015,06,30,07,59,16.40
2015,06,30,08,00,16.40
2015,06,30,08,01,16.40
2015,06,30,08,02,16.40
2015,06,30,08,03,16.40
2015,06,30,08,04,16.40
2015,06,30,08,05,16.40
2015,06,30,08,06,16.40
2015,06,30,08,07,16.50
2015,06,30,08,08,16.50
2015,06,30,08,09,16.50
2015,06,30,08,10,16.50
2015,06,30,08,11,16.50
2015,06,30,08,12,16.50
2015,06,30,08,13,16.50
2015,06,30,08,14,16.50
2015,06,30,08,15,16.50
2015,06,30,08,16,16.60
2015,06,30,08,17,16.60
2015,06,30,08,18,16.60
2015,06,30,08,19,16.60
2015,06,30,08,20,16.60
2015,06,30,08,21,16.70
2015,06,30,08,22,16.70
2015,06,30,08,23,16.70
2015,06,30,08,24,16.70
2015,06,30,08,25,16.70
2015,06,30,08,26,16.80
2015,06,30,08,27,16.80
2015,06,30,08,28,16.80
2015,06,30,08,29,16.80
2015,06,30,08,30,16.80
2015,06,30,08,31,16.90
2015,06,30,08,32,16.90
2015,06,30,08,33,16.90
2015,06,30,08,34,16.90
2015,06,30,08,35,16.90
2015,06,30,08,36,16.90
2015,06,30,08,37,16.90
2015,06,30,08,38,16.90
2015,06,30,08,39,16.90
2015,06,30,08,40,17.00
2015,06,30,08,41,17.00
2015,06,30,08,42,17.00
2015,06,30,08,43,17.00
2015,06,30,08,44,17.00
2015,06,30,08,45,17.00
2015,06,30,08,46,17.00
2015,06,30,08,47,17.00
2015,06,30,08,48,17.10
2015,06,30,08,49,17.10
2015,06,30,08,50,17.10
2015,06,30,08,51,17.10
2015,06,30,08,52,17.10
2015,06,30,08,53,17.20
2015,06,30,08,54,17.20
2015,06,30,08,55,17.20
2015,06,30,08,56,17.20
2015,06,30,08,57,17.20
2015,06,30,08,58,17.20
2015,06,30,08,59,17.20
2015,06,30,09,00,17.20
2015,06,30,09,01,17.20
2015,06,30,09,02,17.20
2015,06,30,09,03,17.30
2015,06,30,09,04,17.30
2015,06,30,09,05,17.30
2015,06,30,09,06,17.30
2015,06,30,09,07,17.30
2015,06,30,09,08,17.30
2015,06,30,09,09,17.30
2015,06,30,09,10,17.30
2015,06,30,09,11,17.30
2015,06,30,09,12,17.30
2015,06,30,09,13,17.30
2015,06,30,09,14,17.40
2015,06,30,09,15,17.40
2015,06,30,09,16,17.40
2015,06,30,09,17,17.40
2015,06,30,09,18,17.40
2015,06,30,09,19,17.50
2015,06,30,09,20,17.50
2015,06,30,09,21,17.50
2015,06,30,09,22,17.60
2015,06,30,09,23,17.60
2015,06,30,09,24,17.60
2015,06,30,09,25,17.60
2015,06,30,09,26,17.60
2015,06,30,09,27,17.60
2015,06,30,09,28,17.60
2015,06,30,09,29,17.60
2015,06,30,09,30,17.60
2015,06,30,09,31,17.60
2015,06,30,09,32,17.70
2015,06,30,09,33,17.70
2015,06,30,09,34,17.70
2015,06,30,09,35,17.70
2015,06,30,09,36,17.80
2015,06,30,09,37,17.80
2015,06,30,09,38,17.80
2015,06,30,09,39,17.80
2015,06,30,09,40,17.90
2015,06,30,09,41,17.90
2015,06,30,09,42,17.90
2015,06,30,09,43,17.90
2015,06,30,09,44,17.90
2015,06,30,09,45,17.90
2015,06,30,09,46,17.90
2015,06,30,09,47,17.90
2015,06,30,09,48,18.00
2015,06,30,09,49,18.10
2015,06,30,09,50,18.30
2015,06,30,09,51,18.60
2015,06,30,09,52,18.70
2015,06,30,09,53,19.00
2015,06,30,09,54,19.20
2015,06,30,09,55,19.40
2015,06,30,09,56,19.60
2015,06,30,09,57,19.70
2015,06,30,09,58,19.80
2015,06,30,09,59,19.90
2015,06,30,10,00,19.90
2015,06,30,10,01,20.10
2015,06,30,10,02,20.40
2015,06,30,10,03,20.80
2015,06,30,10,04,21.10
2015,06,30,10,05,21.30
2015,06,30,10,06,21.60
2015,06,30,10,07,21.70
2015,06,30,10,08,21.80
2015,06,30,10,09,21.90
2015,06,30,10,10,22.00
2015,06,30,10,11,22.10
2015,06,30,10,12,22.20
2015,06,30,10,13,22.20
2015,06,30,10,14,22.20
2015,06,30,10,15,22.20
2015,06,30,10,16,22.30
2015,06,30,10,17,22.40
2015,06,30,10,18,22.50
2015,06,30,10,19,22.60
2015,06,30,10,20,22.60
2015,06,30,10,21,22.70
2015,06,30,10,22,22.70
2015,06,30,10,23,22.80
2015,06,30,10,24,22.90
2015,06,30,10,25,22.90
2015,06,30,10,26,22.90
2015,06,30,10,27,23.00
2015,06,30,10,28,23.00
2015,06,30,10,29,23.00
2015,06,30,10,30,23.10
2015,06,30,10,31,23.20
2015,06,30,10,32,23.30
2015,06,30,10,33,23.30
2015,06,30,10,34,23.40
2015,06,30,10,35,23.40
2015,06,30,10,36,23.40
2015,06,30,10,37,23.40
2015,06,30,10,38,23.40
2015,06,30,10,39,23.40
2015,06,30,10,40,23.50
2015,06,30,10,41,23.40
2015,06,30,10,42,23.50
2015,06,30,10,43,23.50
2015,06,30,10,44,23.60
2015,06,30,10,45,23.70
2015,06,30,10,46,23.70
2015,06,30,10,47,23.80
2015,06,30,10,48,23.80
2015,06,30,10,49,23.90
2015,06,30,10,50,23.90
2015,06,30,10,51,24.00
2015,06,30,10,52,24.00
2015,06,30,10,53,24.10
2015,06,30,10,54,24.20
2015,06,30,10,55,24.10
2015,06,30,10,56,24.10
2015,06,30,10,57,24.10
2015,06,30,10,58,24.20
2015,06,30,10,59,24.30
2015,06,30,11,00,24.40
2015,06,30,11,01,24.40
2015,06,30,11,02,24.50
2015,06,30,11,03,24.60
2015,06,30,11,04,24.60
2015,06,30,11,05,24.70
2015,06,30,11,06,24.70
2015,06,30,11,07,24.70
2015,06,30,11,08,24.70
2015,06,30,11,09,24.60
2015,06,30,11,10,24.60
2015,06,30,11,11,24.70
2015,06,30,11,12,24.80
2015,06,30,11,13,24.90
2015,06,30,11,14,25.00
2015,06,30,11,15,25.00
2015,06,30,11,16,25.00
2015,06,30,11,17,25.10
2015,06,30,11,18,25.10
2015,06,30,11,19,25.20
2015,06,30,11,20,25.20
2015,06,30,11,21,25.20
2015,06,30,11,22,25.30
2015,06,30,11,23,25.30
2015,06,30,11,24,25.20
2015,06,30,11,25,25.20
2015,06,30,11,26,25.10
2015,06,30,11,27,25.10
2015,06,30,11,28,25.20
2015,06,30,11,29,25.20
2015,06,30,11,30,25.20
2015,06,30,11,31,25.30
2015,06,30,11,32,25.30
2015,06,30,11,33,25.30
2015,06,30,11,34,25.40
2015,06,30,11,35,25.50
2015,06,30,11,36,25.60
2015,06,30,11,37,25.70
2015,06,30,11,38,25.80
2015,06,30,11,39,25.90
2015,06,30,11,40,25.70
2015,06,30,11,41,25.60
2015,06,30,11,42,25.50
2015,06,30,11,43,25.40
2015,06,30,11,44,25.30
2015,06,30,11,45,25.10
2015,06,30,11,46,24.90
2015,06,30,11,47,24.80
2015,06,30,11,48,24.60
2015,06,30,11,49,24.40
2015,06,30,11,50,24.20
2015,06,30,11,51,24.00
2015,06,30,11,52,23.80
2015,06,30,11,53,23.50
2015,06,30,11,54,23.30
2015,06,30,11,55,23.10
2015,06,30,11,56,23.00
2015,06,30,11,57,22.90
2015,06,30,11,58,22.70
2015,06,30,11,59,22.70
2015,06,30,12,00,22.90
2015,06,30,12,01,23.20
2015,06,30,12,02,23.40
2015,06,30,12,03,23.50
2015,06,30,12,04,23.60
2015,06,30,12,05,23.70
2015,06,30,12,06,23.70
2015,06,30,12,07,23.70
2015,06,30,12,08,23.80
2015,06,30,12,09,23.90
2015,06,30,12,10,24.00
2015,06,30,12,11,24.10
2015,06,30,12,12,24.20
2015,06,30,12,13,24.20
2015,06,30,12,14,24.20
2015,06,30,12,15,24.40
2015,06,30,12,16,24.40
2015,06,30,12,17,24.30
2015,06,30,12,18,24.10
2015,06,30,12,19,23.90
2015,06,30,12,20,23.80
2015,06,30,12,21,23.60
2015,06,30,12,22,23.50
2015,06,30,12,23,23.30
2015,06,30,12,24,23.20
2015,06,30,12,25,23.10
2015,06,30,12,26,23.00
2015,06,30,12,27,22.80
2015,06,30,12,28,22.70
2015,06,30,12,29,22.70
2015,06,30,12,30,22.70
2015,06,30,12,31,22.70
2015,06,30,12,32,22.70
2015,06,30,12,33,22.80
2015,06,30,12,34,22.90
2015,06,30,12,35,23.10
2015,06,30,12,36,23.20
2015,06,30,12,37,23.20
2015,06,30,12,38,23.20
2015,06,30,12,39,23.20
2015,06,30,12,40,23.30
2015,06,30,12,41,23.30
2015,06,30,12,42,23.20
2015,06,30,12,43,23.20
2015,06,30,12,44,23.00
2015,06,30,12,45,22.90
2015,06,30,12,46,22.90
2015,06,30,12,47,22.80
2015,06,30,12,48,22.80
2015,06,30,12,49,22.70
2015,06,30,12,50,22.60
2015,06,30,12,51,22.60
2015,06,30,12,52,22.60
2015,06,30,12,53,22.60
2015,06,30,12,54,22.60
2015,06,30,12,55,22.60
2015,06,30,12,56,22.70
2015,06,30,12,57,22.80
2015,06,30,12,58,22.90
2015,06,30,12,59,23.00
2015,06,30,13,00,23.10
2015,06,30,13,01,23.10
2015,06,30,13,02,23.10
2015,06,30,13,03,23.00
2015,06,30,13,04,22.90
2015,06,30,13,05,22.80
2015,06,30,13,06,22.80
2015,06,30,13,07,22.90
2015,06,30,13,08,22.90
2015,06,30,13,09,22.90
2015,06,30,13,10,23.00
2015,06,30,13,11,23.00
2015,06,30,13,12,23.00
2015,06,30,13,13,23.10
2015,06,30,13,14,23.10
2015,06,30,13,15,23.20
2015,06,30,13,16,23.30
2015,06,30,13,17,23.50
2015,06,30,13,18,23.80
2015,06,30,13,19,23.90
2015,06,30,13,20,24.10
2015,06,30,13,21,24.30
2015,06,30,13,22,24.40
2015,06,30,13,23,24.50
2015,06,30,13,24,24.40
2015,06,30,13,25,24.30
2015,06,30,13,26,24.30
2015,06,30,13,27,24.30
2015,06,30,13,28,24.20
2015,06,30,13,29,24.10
2015,06,30,13,30,24.00
2015,06,30,13,31,24.00
2015,06,30,13,32,23.90
2015,06,30,13,33,23.90
2015,06,30,13,34,23.80
2015,06,30,13,35,23.80
2015,06,30,13,36,23.80
2015,06,30,13,37,23.80
2015,06,30,13,38,23.80
2015,06,30,13,39,23.80
2015,06,30,13,40,23.80
2015,06,30,13,41,23.70
2015,06,30,13,42,23.70
2015,06,30,13,43,23.70
2015,06,30,13,44,23.70
2015,06,30,13,45,23.70
2015,06,30,13,46,23.70
2015,06,30,13,47,23.70
2015,06,30,13,48,23.70
2015,06,30,13,49,23.80
2015,06,30,13,50,23.90
2015,06,30,13,51,24.10
2015,06,30,13,52,24.20
2015,06,30,13,53,24.30
2015,06,30,13,54,24.40
2015,06,30,13,55,24.50
2015,06,30,13,56,24.60
2015,06,30,13,57,24.60
2015,06,30,13,58,24.50
2015,06,30,13,59,24.50
2015,06,30,14,00,24.60
2015,06,30,14,01,24.60
2015,06,30,14,02,24.70
2015,06,30,14,03,24.70
2015,06,30,14,04,24.80
2015,06,30,14,05,24.80
2015,06,30,14,06,24.80
2015,06,30,14,07,24.80
2015,06,30,14,08,25.00
2015,06,30,14,09,25.20
2015,06,30,14,10,25.30
2015,06,30,14,11,25.30
2015,06,30,14,12,25.30
2015,06,30,14,13,25.40
2015,06,30,14,14,25.30
2015,06,30,14,15,25.30
2015,06,30,14,16,25.20
2015,06,30,14,17,25.10
2015,06,30,14,18,25.10
2015,06,30,14,19,25.00
2015,06,30,14,20,25.10
2015,06,30,14,21,25.10
2015,06,30,14,22,25.10
2015,06,30,14,23,25.00
2015,06,30,14,24,24.90
2015,06,30,14,25,24.80
2015,06,30,14,26,24.80
2015,06,30,14,27,24.70
2015,06,30,14,28,24.70
2015,06,30,14,29,24.60
2015,06,30,14,30,24.50
2015,06,30,14,31,24.50
2015,06,30,14,32,24.40
2015,06,30,14,33,24.50
2015,06,30,14,34,24.60
2015,06,30,14,35,24.70
2015,06,30,14,36,24.80
2015,06,30,14,37,24.90
2015,06,30,14,38,24.90
2015,06,30,14,39,24.80
2015,06,30,14,40,24.80
2015,06,30,14,41,24.70
2015,06,30,14,42,24.60
2015,06,30,14,43,24.60
2015,06,30,14,44,24.60
2015,06,30,14,45,24.60
2015,06,30,14,46,24.70
2015,06,30,14,47,24.70
2015,06,30,14,48,24.80
2015,06,30,14,49,24.80
2015,06,30,14,50,24.80
2015,06,30,14,51,24.70
2015,06,30,14,52,24.70
2015,06,30,14,53,24.60
2015,06,30,14,54,24.60
2015,06,30,14,55,24.50
2015,06,30,14,56,24.50
2015,06,30,14,57,24.50
2015,06,30,14,58,24.50
2015,06,30,14,59,24.60
2015,06,30,15,00,24.60
2015,06,30,15,01,24.60
2015,06,30,15,02,24.60
2015,06,30,15,03,24.70
2015,06,30,15,04,24.70
2015,06,30,15,05,24.70
2015,06,30,15,06,24.70
2015,06,30,15,07,24.70
2015,06,30,15,08,24.70
2015,06,30,15,09,24.70
2015,06,30,15,10,24.80
2015,06,30,15,11,24.80
2015,06,30,15,12,24.80
2015,06,30,15,13,24.80
2015,06,30,15,14,24.80
2015,06,30,15,15,24.90
2015,06,30,15,16,24.90
2015,06,30,15,17,24.90
2015,06,30,15,18,24.90
2015,06,30,15,19,24.90
2015,06,30,15,20,24.90
2015,06,30,15,21,24.80
2015,06,30,15,22,24.70
2015,06,30,15,23,24.70
2015,06,30,15,24,24.70
2015,06,30,15,25,24.70
2015,06,30,15,26,24.70
2015,06,30,15,27,24.70
2015,06,30,15,28,24.70
2015,06,30,15,29,24.80
2015,06,30,15,30,24.80
2015,06,30,15,31,24.80
2015,06,30,15,32,24.70
2015,06,30,15,33,24.70
2015,06,30,15,34,24.80
2015,06,30,15,35,24.80
2015,06,30,15,36,24.80
2015,06,30,15,37,24.90
2015,06,30,15,38,24.90
2015,06,30,15,39,24.90
2015,06,30,15,40,25.00
2015,06,30,15,41,25.10
2015,06,30,15,42,25.20
2015,06,30,15,43,25.20
2015,06,30,15,44,25.20
2015,06,30,15,45,25.20
2015,06,30,15,46,25.10
2015,06,30,15,47,25.10
2015,06,30,15,48,25.00
2015,06,30,15,49,24.90
2015,06,30,15,50,24.90
2015,06,30,15,51,24.90
2015,06,30,15,52,24.90
2015,06,30,15,53,24.90
2015,06,30,15,54,24.90
2015,06,30,15,55,24.90
2015,06,30,15,56,25.00
2015,06,30,15,57,25.20
2015,06,30,15,58,25.20
2015,06,30,15,59,25.30
2015,06,30,16,00,25.30
2015,06,30,16,01,25.30
2015,06,30,16,02,25.40
2015,06,30,16,03,25.50
2015,06,30,16,04,25.50
2015,06,30,16,05,25.60
2015,06,30,16,06,25.60
2015,06,30,16,07,25.50
2015,06,30,16,08,25.40
2015,06,30,16,09,25.30
2015,06,30,16,10,25.20
2015,06,30,16,11,25.00
2015,06,30,16,12,24.90
2015,06,30,16,13,24.90
2015,06,30,16,14,24.90
2015,06,30,16,15,24.90
2015,06,30,16,16,24.90
2015,06,30,16,17,25.00
2015,06,30,16,18,25.00
2015,06,30,16,19,25.10
2015,06,30,16,20,25.10
2015,06,30,16,21,25.10
2015,06,30,16,22,25.20
2015,06,30,16,23,25.30
2015,06,30,16,24,25.40
2015,06,30,16,25,25.50
2015,06,30,16,26,25.70
2015,06,30,16,27,25.80
2015,06,30,16,28,26.00
2015,06,30,16,29,26.20
2015,06,30,16,30,26.60
2015,06,30,16,31,26.80
2015,06,30,16,32,27.10
2015,06,30,16,33,27.30
2015,06,30,16,34,27.30
2015,06,30,16,35,27.20
2015,06,30,16,36,27.00
2015,06,30,16,37,26.80
2015,06,30,16,38,26.70
2015,06,30,16,39,26.70
2015,06,30,16,40,26.70
2015,06,30,16,41,26.90
2015,06,30,16,42,27.00
2015,06,30,16,43,27.10
2015,06,30,16,44,27.20
2015,06,30,16,45,27.30
2015,06,30,16,46,27.40
2015,06,30,16,47,27.50
2015,06,30,16,48,27.60
2015,06,30,16,49,27.50
2015,06,30,16,50,27.50
2015,06,30,16,51,27.40
2015,06,30,16,52,27.40
2015,06,30,16,53,27.40
2015,06,30,16,54,27.50
2015,06,30,16,55,27.60
2015,06,30,16,56,27.60
2015,06,30,16,57,27.60
2015,06,30,16,58,27.60
2015,06,30,16,59,27.60
2015,06,30,17,00,27.60
2015,06,30,17,01,27.60
2015,06,30,17,02,27.60
2015,06,30,17,03,27.60
2015,06,30,17,04,27.60
2015,06,30,17,05,27.50
2015,06,30,17,06,27.40
2015,06,30,17,07,27.40
2015,06,30,17,08,27.30
2015,06,30,17,09,27.30
2015,06,30,17,10,27.40
2015,06,30,17,11,27.40
2015,06,30,17,12,27.40
2015,06,30,17,13,27.30
2015,06,30,17,14,27.30
2015,06,30,17,15,27.30
2015,06,30,17,16,27.30
2015,06,30,17,17,27.30
2015,06,30,17,18,27.30
2015,06,30,17,19,27.20